2016-04-27 00:05:37 r, 20.74m,0000000000Hz,0001072449c,0000002.327s, 018.3C,00002191
2016-04-27 00:15:37 r, 20.21m,0000000000Hz,0000659544c,0000001.431s, 018.0C,00002191
2016-04-27 00:25:37 r, 20.02m,0000000001Hz,0000554913c,0000001.204s, 018.0C,00002191
2016-04-27 00:35:38 r, 20.18m,0000000001Hz,0000643404c,0000001.396s, 018.0C,00002191
2016-04-27 00:45:37 r, 20.13m,0000000001Hz,0000618274c,0000001.342s, 018.3C,00002191
2016-04-27 00:55:37 r, 19.96m,0000000001Hz,0000523184c,0000001.135s, 018.3C,00002191
2016-04-27 01:05:37 r, 19.90m,0000000001Hz,0000497236c,0000001.079s, 018.0C,00002191
2016-04-27 01:15:37 r, 19.85m,0000000001Hz,0000472262c,0000001.025s, 018.0C,00002191
2016-04-27 01:25:37 r, 19.78m,0000000001Hz,0000444187c,0000000.964s, 018.0C,00002191
2016-04-27 01:35:38 r, 19.96m,0000000001Hz,0000526242c,0000001.142s, 017.7C,00002191
2016-04-27 01:45:37 r, 20.26m,0000000000Hz,0000693291c,0000001.505s, 017.7C,00002191
2016-04-27 01:55:37 r, 20.36m,0000000001Hz,0000756368c,0000001.641s, 017.4C,00002191
2016-04-27 02:05:37 r, 20.10m,0000000001Hz,0000600735c,0000001.304s, 017.0C,00002191
2016-04-27 02:15:37 r, 19.63m,0000000001Hz,0000387802c,0000000.842s, 016.7C,00002191
2016-04-27 02:25:37 r, 19.48m,0000000001Hz,0000336980c,0000000.731s, 016.7C,00002191
2016-04-27 02:35:37 r, 19.39m,0000000001Hz,0000313903c,0000000.681s, 016.4C,00002191
2016-04-27 02:45:37 r, 19.30m,0000000002Hz,0000288128c,0000000.625s, 016.4C,00002191
2016-04-27 02:55:37 r, 19.20m,0000000002Hz,0000264062c,0000000.573s, 016.4C,00002191
2016-04-27 03:05:38 r, 19.08m,0000000002Hz,0000234394c,0000000.509s, 016.4C,00002191
2016-04-27 03:15:37 r, 19.08m,0000000002Hz,0000234250c,0000000.508s, 016.4C,00002191
2016-04-27 03:25:37 r, 19.08m,0000000002Hz,0000234190c,0000000.508s, 016.1C,00002191
2016-04-27 03:35:39 r, 18.98m,0000000002Hz,0000216026c,0000000.469s, 015.7C,00002191
2016-04-27 03:45:37 r, 18.89m,0000000003Hz,0000196820c,0000000.427s, 015.4C,00002191
2016-04-27 03:55:37 r, 18.87m,0000000002Hz,0000193190c,0000000.419s, 015.4C,00002191
2016-04-27 04:05:37 r, 18.80m,0000000002Hz,0000180918c,0000000.393s, 015.4C,00002191
2016-04-27 04:15:37 r, 18.85m,0000000002Hz,0000189998c,0000000.412s, 015.4C,00002191
2016-04-27 04:25:37 r, 18.84m,0000000002Hz,0000188144c,0000000.408s, 015.4C,00002191
2016-04-27 04:35:37 r, 18.77m,0000000003Hz,0000176655c,0000000.383s, 015.4C,00002191
2016-04-27 04:45:37 r, 18.61m,0000000003Hz,0000152557c,0000000.331s, 015.1C,00002191
2016-04-27 04:55:37 r, 18.31m,0000000004Hz,0000115369c,0000000.250s, 015.1C,00002191
2016-04-27 05:05:37 r, 17.66m,0000000007Hz,0000063369c,0000000.138s, 014.8C,00002191
2016-04-27 05:15:37 r, 16.65m,0000000018Hz,0000025049c,0000000.054s, 014.8C,00002191
2016-04-27 05:25:37 r, 15.06m,0000000078Hz,0000005817c,0000000.013s, 014.8C,00002191
2016-04-27 05:35:37 r, 13.26m,0000000421Hz,0000000000c,0000000.000s, 014.5C,00002191
2016-04-27 05:45:37 r, 11.47m,0000002187Hz,0000000000c,0000000.000s, 014.5C,00002191
2016-04-27 05:55:37 r, 09.75m,0000010703Hz,0000000000c,0000000.000s, 014.1C,00002191
2016-04-27 06:05:37 r, 08.41m,0000036723Hz,0000000000c,0000000.000s, 014.1C,00002191
2016-04-27 06:15:37 r, 07.49m,0000085070Hz,0000000000c,0000000.000s, 013.8C,00002191
2016-04-27 06:25:37 r, 06.77m,0000166776Hz,0000000000c,0000000.000s, 013.8C,00002191
2016-04-27 06:35:37 r, 06.20m,0000282541Hz,0000000000c,0000000.000s, 013.8C,00002191
2016-04-27 06:45:37 r, 00.00m,0000414300Hz,0000000000c,0000000.000s, 014.1C,00002191
2016-04-27 06:55:37 r, 00.00m,0000597482Hz,0000000000c,0000000.000s, 014.5C,00002191
2016-04-27 07:05:37 r, 00.00m,0000596334Hz,0000000000c,0000000.000s, 014.8C,00002191
2016-04-27 07:15:37 r, 00.00m,0000596118Hz,0000000000c,0000000.000s, 015.4C,00002191
2016-04-27 07:25:37 r, 00.00m,0000596029Hz,0000000000c,0000000.000s, 016.7C,00002191
2016-04-27 07:35:37 r, 00.00m,0000596048Hz,0000000000c,0000000.000s, 017.4C,00002191
2016-04-27 07:45:38 r, 00.00m,0000595947Hz,0000000000c,0000000.000s, 018.0C,00002191
2016-04-27 07:55:37 r, 00.00m,0000595895Hz,0000000000c,0000000.000s, 019.0C,00002191
2016-04-27 08:05:37 r, 00.00m,0000595744Hz,0000000000c,0000000.000s, 019.6C,00002191
2016-04-27 08:15:37 r, 00.00m,0000595708Hz,0000000000c,0000000.000s, 020.6C,00002191
2016-04-27 08:25:37 r, 00.00m,0000595590Hz,0000000000c,0000000.000s, 021.5C,00002191
2016-04-27 08:35:37 r, 00.00m,0000595511Hz,0000000000c,0000000.000s, 022.5C,00002191
2016-04-27 08:45:37 r, 00.00m,0000595359Hz,0000000000c,0000000.000s, 023.5C,00002191
2016-04-27 08:55:37 r, 00.00m,0000595269Hz,0000000000c,0000000.000s, 024.4C,00002191
2016-04-27 09:05:37 r, 00.00m,0000595228Hz,0000000000c,0000000.000s, 025.4C,00002191
2016-04-27 09:15:37 r, 00.00m,0000595094Hz,0000000000c,0000000.000s, 026.7C,00002191
2016-04-27 09:25:37 r, 00.00m,0000595005Hz,0000000000c,0000000.000s, 027.3C,00002191
2016-04-27 09:35:37 r, 00.00m,0000594846Hz,0000000000c,0000000.000s, 028.6C,00002191
2016-04-27 09:45:37 r, 00.00m,0000594782Hz,0000000000c,0000000.000s, 029.6C,00002191
2016-04-27 09:55:37 r, 00.00m,0000594725Hz,0000000000c,0000000.000s, 029.9C,00002191
2016-04-27 10:05:37 r, 00.00m,0000594722Hz,0000000000c,0000000.000s, 030.2C,00002191
2016-04-27 10:15:39 r, 00.00m,0000594583Hz,0000000000c,0000000.000s, 031.5C,00002191
2016-04-27 10:25:37 r, 00.00m,0000594456Hz,0000000000c,0000000.000s, 032.2C,00002191
2016-04-27 10:35:37 r, 00.00m,0000594420Hz,0000000000c,0000000.000s, 033.1C,00002191
2016-04-27 10:45:38 r, 00.00m,0000594333Hz,0000000000c,0000000.000s, 033.5C,00002191
2016-04-27 10:55:37 r, 00.00m,0000594279Hz,0000000000c,0000000.000s, 034.4C,00002191
2016-04-27 11:05:37 r, 00.00m,0000594066Hz,0000000000c,0000000.000s, 035.1C,00002191
2016-04-27 11:15:38 r, 00.00m,0000593988Hz,0000000000c,0000000.000s, 036.0C,00002191
2016-04-27 11:25:37 r, 00.00m,0000593978Hz,0000000000c,0000000.000s, 036.7C,00002191
2016-04-27 11:35:37 r, 00.00m,0000593835Hz,0000000000c,0000000.000s, 037.0C,00002191
2016-04-27 11:45:38 r, 00.00m,0000593866Hz,0000000000c,0000000.000s, 037.0C,00002191
2016-04-27 11:55:37 r, 00.00m,0000593793Hz,0000000000c,0000000.000s, 037.3C,00002191
2016-04-27 12:05:37 r, 00.00m,0000593728Hz,0000000000c,0000000.000s, 037.3C,00002191
2016-04-27 12:15:38 r, 00.00m,0000593717Hz,0000000000c,0000000.000s, 037.3C,00002191
2016-04-27 12:25:37 r, 00.00m,0000593648Hz,0000000000c,0000000.000s, 038.3C,00002191
2016-04-27 12:35:37 r, 00.00m,0000593637Hz,0000000000c,0000000.000s, 038.6C,00002191
2016-04-27 12:45:38 r, 00.00m,0000593595Hz,0000000000c,0000000.000s, 038.6C,00002191
2016-04-27 12:55:37 r, 00.00m,0000593613Hz,0000000000c,0000000.000s, 038.6C,00002191
2016-04-27 13:05:37 r, 00.00m,0000593453Hz,0000000000c,0000000.000s, 039.3C,00002191
2016-04-27 13:15:37 r, 00.00m,0000593418Hz,0000000000c,0000000.000s, 039.3C,00002191
2016-04-27 13:25:37 r, 00.00m,0000593525Hz,0000000000c,0000000.000s, 039.0C,00002191
2016-04-27 13:35:37 r, 00.00m,0000593472Hz,0000000000c,0000000.000s, 039.0C,00002191
2016-04-27 13:45:37 r, 00.00m,0000593407Hz,0000000000c,0000000.000s, 039.0C,00002191
2016-04-27 13:55:37 r, 00.00m,0000593429Hz,0000000000c,0000000.000s, 039.3C,00002191
2016-04-27 14:05:37 r, 00.00m,0000593381Hz,0000000000c,0000000.000s, 039.6C,00002191
2016-04-27 14:15:38 r, 00.00m,0000593225Hz,0000000000c,0000000.000s, 040.9C,00002191
2016-04-27 14:25:37 r, 00.00m,0000593182Hz,0000000000c,0000000.000s, 041.2C,00002191
2016-04-27 14:35:37 r, 00.00m,0000593201Hz,0000000000c,0000000.000s, 041.2C,00002191
2016-04-27 14:45:38 r, 00.00m,0000593282Hz,0000000000c,0000000.000s, 040.6C,00002191
2016-04-27 14:55:37 r, 00.00m,0000593488Hz,0000000000c,0000000.000s, 039.3C,00002191
2016-04-27 15:05:37 r, 00.00m,0000593286Hz,0000000000c,0000000.000s, 040.2C,00002191
2016-04-27 15:15:37 r, 00.00m,0000593205Hz,0000000000c,0000000.000s, 040.6C,00002191
2016-04-27 15:25:37 r, 00.00m,0000593225Hz,0000000000c,0000000.000s, 040.6C,00002191
2016-04-27 15:35:37 r, 00.00m,0000593251Hz,0000000000c,0000000.000s, 040.6C,00002191
2016-04-27 15:45:37 r, 00.00m,0000593340Hz,0000000000c,0000000.000s, 040.6C,00002191
2016-04-27 15:55:37 r, 00.00m,0000593294Hz,0000000000c,0000000.000s, 040.9C,00002191
2016-04-27 16:05:37 r, 00.00m,0000593552Hz,0000000000c,0000000.000s, 039.3C,00002191
2016-04-27 16:15:39 r, 00.00m,0000593619Hz,0000000000c,0000000.000s, 038.6C,00002191
2016-04-27 16:25:37 r, 00.00m,0000593709Hz,0000000000c,0000000.000s, 037.0C,00002191
2016-04-27 16:35:37 r, 00.00m,0000594053Hz,0000000000c,0000000.000s, 035.4C,00002191
2016-04-27 16:45:37 r, 00.00m,0000594239Hz,0000000000c,0000000.000s, 033.8C,00002191
2016-04-27 16:55:37 r, 00.00m,0000594284Hz,0000000000c,0000000.000s, 032.8C,00002191
2016-04-27 17:05:37 r, 00.00m,0000594357Hz,0000000000c,0000000.000s, 032.5C,00002191
2016-04-27 17:15:37 r, 00.00m,0000594398Hz,0000000000c,0000000.000s, 032.2C,00002191
2016-04-27 17:25:37 r, 00.00m,0000594287Hz,0000000000c,0000000.000s, 032.8C,00002191
2016-04-27 17:35:37 r, 00.00m,0000594287Hz,0000000000c,0000000.000s, 032.8C,00002191
2016-04-27 17:45:37 r, 00.00m,0000594322Hz,0000000000c,0000000.000s, 032.5C,00002191
2016-04-27 17:55:37 r, 00.00m,0000594408Hz,0000000000c,0000000.000s, 031.5C,00002191
2016-04-27 18:05:37 r, 00.00m,0000594457Hz,0000000000c,0000000.000s, 031.5C,00002191
2016-04-27 18:15:37 r, 00.00m,0000594571Hz,0000000000c,0000000.000s, 031.2C,00002191
2016-04-27 18:25:37 r, 00.00m,0000594720Hz,0000000000c,0000000.000s, 030.9C,00002191
2016-04-27 18:35:37 r, 00.00m,0000594594Hz,0000000000c,0000000.000s, 030.2C,00002191
2016-04-27 18:45:37 r, 00.00m,0000594696Hz,0000000000c,0000000.000s, 029.9C,00002191
2016-04-27 18:55:37 r, 00.00m,0000594755Hz,0000000000c,0000000.000s, 029.3C,00002191
2016-04-27 19:05:37 r, 00.00m,0000594791Hz,0000000000c,0000000.000s, 029.0C,00002191
2016-04-27 19:15:37 r, 00.00m,0000594867Hz,0000000000c,0000000.000s, 028.6C,00002191
2016-04-27 19:25:37 r, 00.00m,0000595032Hz,0000000000c,0000000.000s, 028.0C,00002191
2016-04-27 19:35:37 r, 00.00m,0000595039Hz,0000000000c,0000000.000s, 027.3C,00002191
2016-04-27 19:45:37 r, 00.00m,0000595156Hz,0000000000c,0000000.000s, 026.4C,00002191
2016-04-27 19:55:37 r, 00.00m,0000595197Hz,0000000000c,0000000.000s, 026.1C,00002191
2016-04-27 20:05:37 r, 00.00m,0000595219Hz,0000000000c,0000000.000s, 025.4C,00002191
2016-04-27 20:15:37 r, 05.82m,0000397366Hz,0000000000c,0000000.000s, 024.8C,00002191
2016-04-27 20:25:37 r, 06.55m,0000202273Hz,0000000000c,0000000.000s, 024.1C,00002191
2016-04-27 20:35:37 r, 07.39m,0000093758Hz,0000000000c,0000000.000s, 023.5C,00002191
2016-04-27 20:45:37 r, 08.34m,0000038959Hz,0000000000c,0000000.000s, 023.2C,00002191
2016-04-27 20:55:37 r, 09.64m,0000011781Hz,0000000000c,0000000.000s, 022.5C,00002191
2016-04-27 21:05:37 r, 11.29m,0000002582Hz,0000000000c,0000000.000s, 022.2C,00002191
2016-04-27 21:15:37 r, 13.09m,0000000490Hz,0000000000c,0000000.000s, 022.2C,00002191
2016-04-27 21:25:37 r, 14.93m,0000000091Hz,0000005135c,0000000.011s, 021.9C,00002191
2016-04-27 21:35:37 r, 16.52m,0000000020Hz,0000022295c,0000000.048s, 021.5C,00002191
2016-04-27 21:45:38 r, 17.73m,0000000007Hz,0000067309c,0000000.146s, 021.5C,00002191
2016-04-27 21:55:37 r, 18.67m,0000000002Hz,0000160209c,0000000.348s, 021.2C,00002191
2016-04-27 22:05:37 r, 19.25m,0000000002Hz,0000276287c,0000000.600s, 020.9C,00002191
2016-04-27 22:15:38 r, 19.56m,0000000001Hz,0000366587c,0000000.796s, 020.6C,00002191
2016-04-27 22:25:37 r, 19.71m,0000000001Hz,0000418678c,0000000.909s, 020.3C,00002191
2016-04-27 22:35:37 r, 19.81m,0000000001Hz,0000460569c,0000000.999s, 019.9C,00002191
2016-04-27 22:45:37 r, 19.94m,0000000001Hz,0000513341c,0000001.114s, 019.9C,00002191
2016-04-27 22:55:37 r, 20.02m,0000000001Hz,0000556494c,0000001.208s, 019.6C,00002191
2016-04-27 23:05:37 r, 20.12m,0000000001Hz,0000607499c,0000001.318s, 019.3C,00002191
2016-04-27 23:15:37 r, 20.21m,0000000001Hz,0000663233c,0000001.439s, 019.3C,00002191
2016-04-27 23:25:38 r, 20.30m,0000000001Hz,0000720626c,0000001.564s, 019.0C,00002191
2016-04-27 23:35:37 r, 20.35m,0000000001Hz,0000747932c,0000001.623s, 019.0C,00002191
2016-04-27 23:45:37 r, 20.35m,0000000000Hz,0000749698c,0000001.627s, 019.0C,00002191
2016-04-27 23:55:37 r, 20.38m,0000000001Hz,0000768948c,0000001.669s, 018.6C,00002191
